GRL6MU EDDH-HAM

Flight info

Callsign GRL6MU
Flight time N/A
Altitude 3000
Route EDDHRV/05 EDDH/05 HAM
Aircraft A339/H-SADE1E2E3GHIJ3J5M1P2RWXY/LB2D1

Departure

Time 2026-05-07 10:56
Airport Hamburg Helmut Schmidt Airport (EDDH)

Arrival

Time N/A
Airport HAM
Time Latitude Longitude Altitude Speed Heading
2026-05-07 10:38 53.62833 9.99327 53 ft 0 kts 242°
2026-05-07 10:45 53.62837 9.99338 46 ft 4 kts 243°
2026-05-07 10:45 53.62847 9.99375 45 ft 3 kts 243°
2026-05-07 10:45 53.62858 9.99409 45 ft 4 kts 208°
2026-05-07 10:46 53.62876 9.99423 45 ft 4 kts 162°
2026-05-07 10:46 53.62900 9.99407 45 ft 3 kts 152°
2026-05-07 10:46 53.62903 9.99404 45 ft 0 kts 153°
2026-05-07 10:49 53.62883 9.99421 45 ft 7 kts 153°
2026-05-07 10:50 53.62822 9.99474 52 ft 13 kts 153°
2026-05-07 10:50 53.62741 9.99545 50 ft 14 kts 152°
2026-05-07 10:50 53.62669 9.99607 50 ft 0 kts 153°
2026-05-07 10:50 53.62650 9.99614 51 ft 5 kts 170°
2026-05-07 10:51 53.62620 9.99564 51 ft 11 kts 239°
2026-05-07 10:51 53.62598 9.99395 48 ft 17 kts 259°
2026-05-07 10:51 53.62574 9.99192 53 ft 19 kts 259°
2026-05-07 10:51 53.62548 9.98968 46 ft 20 kts 259°
2026-05-07 10:52 53.62521 9.98730 49 ft 21 kts 259°
2026-05-07 10:52 53.62492 9.98475 50 ft 23 kts 259°
2026-05-07 10:52 53.62460 9.98209 47 ft 24 kts 255°
2026-05-07 10:52 53.62373 9.97972 49 ft 24 kts 230°
2026-05-07 10:53 53.62262 9.97751 48 ft 25 kts 230°
2026-05-07 10:53 53.62148 9.97522 46 ft 26 kts 230°
2026-05-07 10:53 53.62031 9.97285 50 ft 27 kts 230°
2026-05-07 10:53 53.61912 9.97044 50 ft 27 kts 231°
2026-05-07 10:54 53.61790 9.96797 45 ft 28 kts 230°
2026-05-07 10:54 53.61710 9.96638 49 ft 5 kts 230°
2026-05-07 10:54 53.61682 9.96531 50 ft 13 kts 259°
2026-05-07 10:54 53.61736 9.96420 48 ft 13 kts 349°
2026-05-07 10:55 53.61837 9.96431 51 ft 16 kts 15°
2026-05-07 10:55 53.61919 9.96555 50 ft 21 kts 50°
2026-05-07 10:55 53.62197 9.97125 46 ft 105 kts 50°
2026-05-07 10:55 53.62820 9.98379 94 ft 168 kts 52°
2026-05-07 10:56 53.63615 9.99917 839 ft 179 kts 50°
2026-05-07 10:56 53.64452 10.01523 1697 ft 189 kts 49°
2026-05-07 10:56 53.65367 10.03275 2290 ft 209 kts 50°
2026-05-07 10:56 53.66345 10.05203 2868 ft 223 kts 51°
2026-05-07 10:57 53.67386 10.07259 3447 ft 236 kts 51°
2026-05-07 10:57 53.68429 10.09314 4064 ft 243 kts 50°
2026-05-07 10:57 53.69314 10.10522 4477 ft 252 kts 32°
2026-05-07 10:58 53.69844 10.10951 4677 ft 255 kts 25°
2026-05-07 10:58 53.71383 10.11454 4926 ft 263 kts
2026-05-07 10:59 53.73170 10.10754 4986 ft 269 kts 336°
2026-05-07 10:59 53.74637 10.08757 5007 ft 277 kts 311°
2026-05-07 10:59 53.75476 10.05817 4994 ft 283 kts 284°
2026-05-07 10:59 53.75523 10.02503 5024 ft 284 kts 263°
2026-05-07 11:00 53.75294 9.99193 5022 ft 284 kts 263°
2026-05-07 11:00 53.74692 9.96055 5028 ft 284 kts 238°
2026-05-07 11:00 53.73494 9.93424 4977 ft 281 kts 229°
2026-05-07 11:00 53.72259 9.90860 4991 ft 282 kts 228°
2026-05-07 11:01 53.71022 9.88299 4989 ft 281 kts 229°
2026-05-07 11:01 53.69822 9.85835 4992 ft 281 kts 228°
2026-05-07 11:01 53.68586 9.83270 4993 ft 281 kts 229°
2026-05-07 11:01 53.67412 9.80855 5017 ft 283 kts 229°
2026-05-07 11:02 53.66567 9.79127 4995 ft 283 kts 229°
2026-05-07 11:02 53.64959 9.75828 4972 ft 280 kts 229°
2026-05-07 11:02 53.63732 9.73328 4939 ft 271 kts 229°
2026-05-07 11:02 53.62571 9.70943 4764 ft 255 kts 229°
2026-05-07 11:03 53.61465 9.68679 4424 ft 247 kts 228°
2026-05-07 11:03 53.60374 9.66428 3870 ft 251 kts 229°
2026-05-07 11:03 53.59279 9.64167 3381 ft 253 kts 229°
2026-05-07 11:03 53.58164 9.61886 3066 ft 250 kts 229°
2026-05-07 11:04 53.56950 9.59870 2993 ft 252 kts 210°
2026-05-07 11:04 53.55345 9.58885 3002 ft 237 kts 180°
2026-05-07 11:04 53.53750 9.59262 2990 ft 231 kts 150°
2026-05-07 11:04 53.52449 9.60808 2996 ft 232 kts 134°
2026-05-07 11:05 53.51228 9.62578 2991 ft 230 kts 133°
2026-05-07 11:05 53.50031 9.64344 2988 ft 228 kts 129°
2026-05-07 11:05 53.49304 9.66581 3003 ft 215 kts 96°
2026-05-07 11:05 53.49532 9.68868 2998 ft 190 kts 62°
2026-05-07 11:06 53.49970 9.70093 2998 ft 182 kts 58°
2026-05-07 11:06 53.50674 9.71907 2985 ft 184 kts 57°
2026-05-07 11:06 53.51395 9.73678 2998 ft 185 kts 56°
2026-05-07 11:06 53.52111 9.75385 3000 ft 173 kts 56°
2026-05-07 11:07 53.52783 9.76997 3005 ft 162 kts 56°
2026-05-07 11:07 53.53416 9.78486 2977 ft 151 kts 55°
2026-05-07 11:07 53.54033 9.79934 2803 ft 155 kts 55°
2026-05-07 11:07 53.54613 9.81257 2628 ft 154 kts 54°
2026-05-07 11:08 53.55251 9.82680 2418 ft 155 kts 53°
2026-05-07 11:08 53.55890 9.84148 2251 ft 155 kts 56°
2026-05-07 11:08 53.56521 9.85631 2034 ft 157 kts 54°
2026-05-07 11:08 53.57170 9.87007 1877 ft 142 kts 50°
2026-05-07 11:09 53.57799 9.88233 1607 ft 135 kts 49°
2026-05-07 11:09 53.58402 9.89459 1317 ft 136 kts 51°
2026-05-07 11:09 53.59013 9.90680 1208 ft 139 kts 49°
2026-05-07 11:09 53.59497 9.91676 981 ft 139 kts 51°
2026-05-07 11:10 53.60086 9.92852 766 ft 133 kts 50°
2026-05-07 11:10 53.60690 9.94069 521 ft 137 kts 50°
2026-05-07 11:10 53.61292 9.95283 304 ft 133 kts 50°
2026-05-07 11:10 53.61878 9.96469 115 ft 133 kts 51°
2026-05-07 11:11 53.62485 9.97709 49 ft 143 kts 52°
2026-05-07 11:11 53.63025 9.98809 51 ft 82 kts 50°
2026-05-07 11:11 53.63249 9.99265 48 ft 24 kts 54°
2026-05-07 11:11 53.63287 9.99572 51 ft 28 kts 98°